Regional Weather Roundup
Issued by NWS State College, PA

Home | Current Version | Previous Version | Text Only | Print | Product List | Glossary On
Versions: 1 2 3 4 5 6 7 8 9 10 11 12 13 14 15 16 17 18 19 20 21 22 23 24 25 26 27 28 29 30 31 32 33 34 35 36 37 38 39 40 41 42 43 44 45 46 47 48 49 50
000
ASUS41 KCTP 222103
RWRCTP

REGIONAL WEATHER ROUNDUP
NATIONAL WEATHER SERVICE STATE COLLEGE PA
500 PM EDT SUN OCT 22 2017

Note: "fair" indicates few or no clouds below 12,000 feet with no
significant weather and/or obstructions to visibility.

* = STATION THAT DOES NOT REPORT PRECIPITATION /E.G. RAIN...SNOW...ETC/
    THUNDER OR FOG.

PAZ002>004-007>009-013>016-020>023-029>032-222200-
WESTERN PENNSYLVANIA

CITY           SKY/WX    TMP DP  RH WIND       PRES   REMARKS
ERIE           MOSUNNY   74  50  42 S8        30.15F
MEADVILLE      PTSUNNY   74  50  42 VRB5      30.18F
FRANKLIN*      PTSUNNY   72  52  49 S8        30.21F
NEW CASTLE     FAIR      76  51  41 SE7       30.18F
BEAVER COUNTY  NOT AVBL
BUTLER*        SUNNY     73  50  44 S6        30.20F
PITTSBURGH INT PTSUNNY   76  47  35 S7        30.18F
PITTSBURGH     CLOUDY    74  46  36 S5        30.19F
INDIANA*       SUNNY     75  52  43 S12       30.25S
LATROBE        NOT AVBL
WASHINGTON CO* MOSUNNY   75  47  36 S6        30.21F
$$

PAZ004>006-010>012-017>019-024>028-033>037-041-042-045-046-049>053-222200-
CENTRAL PENNSYLVANIA

CITY           SKY/WX    TMP DP  RH WIND       PRES   REMARKS
BRADFORD       CLOUDY    70  48  45 S8        30.25S
DUBOIS         CLOUDY    70  49  47 E6        30.23F
CLEARFIELD     CLOUDY    72  51  47 VRB6      30.25F
JOHNSTOWN      CLOUDY    68  50  52 SE14      30.26F
ALTOONA        SUNNY     71  53  52 SE12      30.28F
STATE COLLEGE  SUNNY     72  54  53 S8        30.27F
WILLIAMSPORT   MOSUNNY   74  52  46 NE6       30.26F
SELINSGROVE    PTSUNNY   71  53  52 S6        30.29F
FT INDIANTOWN  NOT AVBL
CAPITAL CITY   MOSUNNY   75  43  31 SE12      30.29F
HARRISBURG     MOSUNNY   72  49  44 SE9       30.29S
YORK           SUNNY     70  47  43 SE12      30.30F
$$

PAZ038>040-043-044-047-048-054-055-060>062-067>071-222200-
EASTERN PENNSYLVANIA

CITY           SKY/WX    TMP DP  RH WIND       PRES   REMARKS
SCRANTON       CLOUDY    74  43  32 VRB3      30.31S
MOUNT POCONO   SUNNY     67  43  41 SE12      30.36F
ALLENTOWN      SUNNY     75  45  34 SE10      30.33F
QUAKERTOWN*    CLEAR     72  45  37 S5        30.35F
READING        SUNNY     72  46  39 SE9       30.31F
LANCASTER      SUNNY     71  49  45 S8        30.32F
COATESVILLE    CLEAR     68  39  34 VRB5      30.35F
POTTSTOWN      SUNNY     72  45  37 VRB6      30.35F
BLUE BELL      SUNNY     72  48  43 S6        30.35F
DOYLESTOWN     SUNNY     71  46  40 VRB3      30.34F
WILLOW GROVE   NOT AVBL
NORTH PHILA    SUNNY     75  51  43 VRB7      30.35F
PHILADELPHIA   PTSUNNY   74  52  46 S6        30.33F
$$




USA.gov is the U.S. government's official web portal to all federal, state and local government web resources and services.